Regional Weather Roundup
Issued by NWS Portland, ME

Home | Current Version | Previous Version | Text Only | Print | Product List | Glossary On
Versions: 1 2 3 4 5 6 7 8 9 10 11 12 13 14 15 16 17 18 19 20 21 22 23 24 25 26 27 28 29 30 31 32 33 34 35 36 37 38 39 40 41 42 43 44 45 46 47 48 49 50
000
ASUS41 KGYX 072010
RWRGYX
WEATHER ROUNDUP FOR MAINE AND NEW HAMPSHIRE
NATIONAL WEATHER SERVICE GRAY ME
400 PM EDT TUE JUL 07 2015

MEZ002-005-006-010-012-015-018-020-021-024-026-027-029-072100-
MAINE

CITY           SKY/WX    TMP DP  RH WIND       PRES   REMARKS
PORTLAND       CLOUDY    74  68  81 S14G24    30.00F
SANFORD        CLOUDY    79  66  65 S5        29.99F
BAR HARBOR     CLOUDY    68  64  88 S13       30.06F
WISCASSET      MOSUNNY   72  65  78 SE9       30.04F
ROCKLAND       PTSUNNY   66  61  82 S13G20    30.04F
FRYEBURG       CLOUDY    78  73  84 CALM      29.97F
LEWISTONAUBURN MOSUNNY   79  68  69 SE15      29.99F
AUGUSTA        CLOUDY    75  67  76 S13G24    30.01F
WATERVILLE     PTSUNNY   79  68  69 S8        29.96F
BANGOR         CLOUDY    74  66  76 S14       30.02S
GREENVILLE       N/A     78  67  68 S12G18    29.97F
MILLINOCKET    CLOUDY    81  63  54 VRB7      29.98S
HOULTON        PTSUNNY   84  63  49 S8G17     29.95F
PRESQUE ISLE   PTSUNNY   84  61  45 S14G20    29.92F
FRENCHVILLE    PTSUNNY   81  61  50 S15       29.91F
CARIBOU        MOSUNNY   84  62  47 S9        29.91F
$$

NHZ002-005-008-009-011-012-014-072100-
NEW HAMPSHIRE

CITY           SKY/WX    TMP DP  RH WIND       PRES   REMARKS
PORTSMOUTH     PTSUNNY   81  71  70 SE17      29.95F
ROCHESTER      CLOUDY    79  73  82 SE7       29.96F
NASHUA         LGT RAIN  77  74  90 VRB6      29.97F
MANCHESTER     HVY RAIN  78  72  81 SW12      29.96S
CONCORD        CLOUDY    81  70  69 SE6       29.96F
LACONIA        PTSUNNY   81  70  69 S6        29.95F
PLYMOUTH       CLOUDY    78  73  82 S6        29.96S
BERLIN         PTSUNNY   81  64  56 S9        29.96F
WHITEFIELD     CLOUDY    81  64  56 S10G21    29.95F
JAFFREY        CLOUDY    74  71  91 S8        30.00F
KEENE          PTSUNNY   79  70  73 S8        29.97F
LEBANON        CLOUDY    83  69  62 S16       29.93F
MT WASHINGTON  FOG       55  55 100 S33G43      N/A  VSB 0
$$

VTZ005-007-008-072100-
VERMONT

CITY           SKY/WX    TMP DP  RH WIND       PRES   REMARKS
ST JOHNSBURY     N/A     76  68  76 MISG      29.93R
MONTPELIER     MOSUNNY   78  69  73 S14G23    29.98F
BURLINGTON     MOSUNNY   83  69  62 S16       29.86F
$$

MAZ007-012-024-CTZ003-RIZ002-NYZ038-NYZ072-072100-
SOUTHERN NEW ENGLAND AND NY

CITY           SKY/WX    TMP DP  RH WIND       PRES   REMARKS
BOSTON         PTSUNNY   82  70  66 S18       29.98F
WORCESTER      CLOUDY    78  68  71 S15G23    30.02F
NANTUCKET      CLOUDY    71  68  90 S9        30.06F FOG
PROVIDENCE     PTSUNNY   79  73  82 S15       30.02F
HARTFORD       PTSUNNY   84  72  67 S17       29.94F
ALBANY         PTSUNNY   79  72  79 S12       29.92F
NEW YORK CITY  MOSUNNY   84  71  65 S13G21    29.95F
$$

ANZ081-ANZ082-ANZ150-NHZ014-MEZ023>029-072100-
COASTAL MARINE OBSERVATIONS

STATION/POSITION TIME  TEMP    WIND        PRES    WAVE
                       AIR SEA DIR/SP/G            HT/PER
                 (UTC) (F)     (DEG/KT/KT) (MB)    (FT/S)
MOUNT DESERT ROC 2000   62     170/ 12/ 13 1018.3F
MATINICUS ROCK   2000   60     180/ 19/ 19 1017.2F
ISLE OF SHOALS   2000   69     160/ 22/ 24 1014.3F
JEFFREYS LEDGE   1903      62                N/A     3/ 4
CASHES LEDGE BUO 1950   62 60              1016.8F   3/ 3
GEORGES BANK BUO 1950   65 61  130/ 10/ 10 1020.2F   2/ 7
$$

.............KEY..............
   WCI - WIND CHILL
   TC  - TEMPERATURE IN CELSIUS
   VSB - VISIBILITY IN MILES
   HX  - HEAT INDEX
   FAIR- INDICATES FEW OR NO CLOUDS BELOW 12,000 FT, WITH NO
         SIGNIFICANT WEATHER AND/OR OBSTRUCTIONS TO VISIBILITY.





USA.gov is the U.S. government's official web portal to all federal, state and local government web resources and services.